Muscat International Airport
OOMS : now visible

Airfield :











YOU CAN JOIN US ON...

 
LOGIN :

Register | Disclaimer

   EN    FR    IT 

 









Legend :    VFR   Marginal VFR   IFR   Intensive IFR   Very Intensive IFR
Visi :
Ceiling :
>= 8 km
>= 3000ft
5 to 8 km
1000 to 3000 ft
1500m to 5 km
500 to 1000 ft
800 to 1500m
200 to 500 ft
< 800m
< 200 ft
Symbols :   Thunderstorms  Fog  Heavy snow  Heavy precipitations  Wind > 20 kt







- Airport Elevation : 48 ft
- IATA code : MCT


OOMS - Muscat International

CURRENT METAR :
  • 161750Z 25005KT CAVOK 38/13 Q0998 NOSIG

EXPIRED METARs :
  • 161650Z 22003KT CAVOK 38/16 Q0998 NOSIG
  • 161550Z 22004KT 170V240 CAVOK 38/21 Q0998 NOSIG

TAF TAF OOMS
Valid from the 16 at 18:00 until the 18 at 00:00 UTC


161700Z 1618/1724 25007KT 8000 NSC
PROB30
TEMPO 1621/1703 SCT015
BECMG 1706/1708 06014KT
BECMG 1717/1719 22010KT
OOMM FIR / Asia



MET'MAP, your aeronautical weather chart ! - Copyright ORBIFLY December 2007 - Disclaimer

ORBIFLY MET'MAP TEAM :

Programming & Development : Alexandra Zaïnal
Concept & Development : Baudouin d'Aumeries
Co-Development & Prog : Marc-Olivier Méhu
Technical & hardware support : Manuel Goepfert

Contact : metmap@orbifly.com




SOURCES & CREDITS :

   NOAA       Earth
Advisory